カタログに戻る

STARLINK-32358

運用中通信VLEO
NORAD 61531·PAYLOAD·🇺🇸 United States

打ち上げ Oct 15, 2024 から Cape Canaveral Space Force Station

Loading…

次のパス (今後24時間)

TLE

最新Source: CelesTrak SupGP

元期: Sep 14, 2026, 21:12 UTC

1 61531C 24183Y   26257.88381944 -.00015727  00000+0 -46507-3 0  2576
2 61531  53.1588 334.2116 0001346  77.4104 217.0640 15.34370203    14

AllMySatでSTARLINK-32358をリアルタイム追跡

Download on the App Store